Weather History for Pawtucket, RI

Change the Weather History Date:

Friday, November 9, 2012

  Actual Average Record
Temperature  
Mean Temperature 43 °F -  
Max Temperature 51 °F 48 °F 66 °F (2011)
Min Temperature 35 °F 32 °F 21 °F (2003)
Degree Days  
Heating Degree Days 22    
Moisture  
Dew Point 23 °F    
Average Humidity 50    
Maximum Humidity 75    
Minimum Humidity 26    
Precipitation  
Precipitation 0.00 in - - ()
Sea Level Pressure  
Sea Level Pressure 29.93 in    
Wind  
Wind Speed 12 mph (NW)    
Max Wind Speed 20 mph    
Max Gust Speed 24 mph    
Visibility 10 miles    
Events      
Averages and records for this station are not official NWS values.
T = Trace of Precipitation, MM = Missing Value Source: NWS Daily Summary

Daily Weather History Graph

Daily Weather History Graph

Search for Another Location

Airport:

Trip Planner

Search our weather history database for the weather conditions in past years. The results will help you decide how hot, cold, wet, or windy it might be!

Date:

Astronomy

Nov. 09, 2012 Rise Set
Actual Time 6:28 AM EST 4:30 PM EST
Civil Twilight 5:59 AM EST 4:59 PM EST
Nautical Twilight 5:25 AM EST 5:33 PM EST
Astronomical Twilight 4:53 AM EST 6:05 PM EST
Moon 1:20 AM EST (11/9) 1:45 PM EST (11/9)
Length of Visible Light 11h 00m
Length of Day
10h 01m
Waning Crescent, 23% of the Moon is Illuminated
Nov 9
Waning Crescent
Nov 13
New
Nov 20
First Quarter
Nov 28
Full
Dec 6
Last Quarter

Hourly Weather History & Observations

Time (EST) Temp. Windchill Dew Point Humidity Pressure Visibility Wind Dir Wind Speed Gust Speed Precip Events Conditions
12:15 AM 37.4 °F 28.2 °F 28.4 °F 70% 29.74 in 10.0 mi NW 16.1 mph 23.0 mph N/A   Overcast
12:35 AM 37.4 °F 29.3 °F 28.4 °F 70% 29.74 in 10.0 mi NNW 12.7 mph 24.2 mph N/A   Mostly Cloudy
12:55 AM 37.4 °F 28.2 °F 28.4 °F 70% 29.74 in 10.0 mi NNW 16.1 mph 21.9 mph N/A   Mostly Cloudy
1:15 AM 37.4 °F 28.2 °F 28.4 °F 70% 29.75 in 10.0 mi NNW 16.1 mph 20.7 mph N/A   Overcast
1:35 AM 37.4 °F 28.9 °F 28.4 °F 70% 29.75 in 10.0 mi NNW 13.8 mph 23.0 mph N/A   Overcast
1:55 AM 37.4 °F 28.9 °F 28.4 °F 70% 29.76 in 10.0 mi NNW 13.8 mph 23.0 mph N/A   Mostly Cloudy
2:15 AM 37.4 °F 28.9 °F 28.4 °F 70% 29.77 in 10.0 mi NW 13.8 mph 20.7 mph N/A   Mostly Cloudy
2:35 AM 37.4 °F 28.9 °F 28.4 °F 70% 29.77 in 10.0 mi NNW 13.8 mph 20.7 mph N/A   Mostly Cloudy
2:55 AM 35.6 °F 27.5 °F 28.4 °F 75% 29.77 in 10.0 mi NNW 11.5 mph - N/A   Partly Cloudy
3:15 AM 35.6 °F 28.0 °F 28.4 °F 75% 29.78 in 10.0 mi NNW 10.4 mph - N/A   Scattered Clouds
3:35 AM 35.6 °F 27.5 °F 28.4 °F 75% 29.78 in 10.0 mi NNW 11.5 mph 19.6 mph N/A   Mostly Cloudy
3:55 AM 35.6 °F 27.5 °F 26.6 °F 70% 29.79 in 10.0 mi NW 11.5 mph 20.7 mph N/A   Clear
4:15 AM 35.6 °F 27.5 °F 26.6 °F 70% 29.80 in 10.0 mi NNW 11.5 mph - N/A   Clear
4:35 AM 35.6 °F 28.6 °F 26.6 °F 70% 29.81 in 10.0 mi NW 9.2 mph 18.4 mph N/A   Clear
4:55 AM 35.6 °F 28.0 °F 26.6 °F 70% 29.81 in 10.0 mi NNW 10.4 mph - N/A   Clear
5:15 AM 35.6 °F 27.5 °F 26.6 °F 70% 29.81 in 10.0 mi NW 11.5 mph - N/A   Clear
5:35 AM 35.6 °F 28.6 °F 26.6 °F 70% 29.82 in 10.0 mi NW 9.2 mph - N/A   Clear
5:55 AM 35.6 °F 28.6 °F 26.6 °F 70% 29.83 in 10.0 mi NNW 9.2 mph - N/A   Clear
6:15 AM 35.6 °F 27.5 °F 24.8 °F 65% 29.84 in 10.0 mi NNW 11.5 mph - N/A   Clear
6:35 AM 35.6 °F 27.1 °F 26.6 °F 70% 29.85 in 10.0 mi NW 12.7 mph - N/A   Clear
6:55 AM 35.6 °F 28.6 °F 26.6 °F 70% 29.86 in 10.0 mi NNW 9.2 mph - N/A   Clear
7:15 AM 35.6 °F 27.1 °F 26.6 °F 70% 29.87 in 10.0 mi NNW 12.7 mph 18.4 mph N/A   Clear
7:35 AM 37.4 °F 30.3 °F 24.8 °F 60% 29.88 in 10.0 mi NNW 10.4 mph - N/A   Clear
7:55 AM 37.4 °F 28.9 °F 26.6 °F 65% 29.89 in 10.0 mi NNW 13.8 mph 21.9 mph N/A   Clear
8:15 AM 39.2 °F 32.0 °F 26.6 °F 61% 29.90 in 10.0 mi NNW 11.5 mph 21.9 mph N/A   Clear
8:35 AM 39.2 °F 32.0 °F 26.6 °F 61% 29.90 in 10.0 mi NW 11.5 mph - N/A   Clear
8:55 AM 41.0 °F 33.1 °F 26.6 °F 57% 29.90 in 10.0 mi NNW 15.0 mph 21.9 mph N/A   Clear
9:15 AM 42.8 °F 35.8 °F 26.6 °F 53% 29.90 in 10.0 mi NNW 13.8 mph 19.6 mph N/A   Clear
9:55 AM 44.6 °F 39.7 °F 26.6 °F 49% 29.91 in 10.0 mi NW 9.2 mph - N/A   Clear
10:15 AM 44.6 °F 37.8 °F 24.8 °F 46% 29.92 in 10.0 mi NNW 15.0 mph 23.0 mph N/A   Clear
10:35 AM 46.4 °F 39.5 °F 26.6 °F 46% 29.92 in 10.0 mi NW 17.3 mph 21.9 mph N/A   Clear
10:55 AM 46.4 °F 40.4 °F 24.8 °F 43% 29.92 in 10.0 mi NNW 13.8 mph 19.6 mph N/A   Clear
11:15 AM 48.2 °F - 24.8 °F 40% 29.93 in 10.0 mi NNW 17.3 mph 24.2 mph N/A   Clear
11:35 AM 48.2 °F - 23.0 °F 37% 29.93 in 10.0 mi NW 13.8 mph 24.2 mph N/A   Clear
11:55 AM 48.2 °F - 23.0 °F 37% 29.93 in 10.0 mi NNW 12.7 mph 19.6 mph N/A   Clear
12:15 PM 48.2 °F - 21.2 °F 34% 29.93 in 10.0 mi NW 13.8 mph 20.7 mph N/A   Clear
12:35 PM 50.0 °F - 21.2 °F 32% 29.93 in 10.0 mi NNW 13.8 mph 19.6 mph N/A   Clear
12:55 PM 51.8 °F - 21.2 °F 30% 29.92 in 10.0 mi NNW 13.8 mph - N/A   Clear
1:15 PM 51.8 °F - 19.4 °F 28% 29.93 in 10.0 mi NNW 15.0 mph 23.0 mph N/A   Clear
1:35 PM 51.8 °F - 21.2 °F 30% 29.93 in 10.0 mi NNW 19.6 mph 23.0 mph N/A   Clear
1:55 PM 51.8 °F - 21.2 °F 30% 29.92 in 10.0 mi WNW 10.4 mph - N/A   Clear
2:15 PM 51.8 °F - 21.2 °F 30% 29.93 in 10.0 mi NW 9.2 mph 18.4 mph N/A   Clear
2:35 PM 51.8 °F - 19.4 °F 28% 29.94 in 10.0 mi WNW 11.5 mph 17.3 mph N/A   Clear
2:55 PM 51.8 °F - 19.4 °F 28% 29.94 in 10.0 mi WNW 15.0 mph 20.7 mph N/A   Clear
3:15 PM 51.8 °F - 17.6 °F 26% 29.95 in 10.0 mi NW 13.8 mph 18.4 mph N/A   Clear
3:35 PM 50.0 °F - 17.6 °F 28% 29.96 in 10.0 mi WNW 9.2 mph - N/A   Clear
3:55 PM 48.2 °F - 17.6 °F 30% 29.96 in 10.0 mi NW 11.5 mph 16.1 mph N/A   Clear
4:15 PM 48.2 °F - 17.6 °F 30% 29.97 in 10.0 mi NW 9.2 mph - N/A   Clear
4:35 PM 46.4 °F 42.4 °F 17.6 °F 32% 29.99 in 10.0 mi WNW 8.1 mph - N/A   Clear
4:55 PM 46.4 °F 41.9 °F 19.4 °F 34% 30.00 in 10.0 mi WNW 9.2 mph - N/A   Clear
5:15 PM 46.4 °F 41.5 °F 19.4 °F 34% 30.01 in 10.0 mi WNW 10.4 mph - N/A   Clear
5:35 PM 44.6 °F 40.2 °F 19.4 °F 37% 30.02 in 10.0 mi WNW 8.1 mph - N/A   Clear
5:55 PM 44.6 °F 39.2 °F 19.4 °F 37% 30.03 in 10.0 mi West 10.4 mph - N/A   Clear
6:15 PM 44.6 °F 41.4 °F 19.4 °F 37% 30.04 in 10.0 mi WNW 5.8 mph - N/A   Clear
6:35 PM 42.8 °F 37.5 °F 19.4 °F 39% 30.05 in 10.0 mi WNW 9.2 mph - N/A   Clear
6:55 PM 42.8 °F 38.0 °F 19.4 °F 39% 30.06 in 10.0 mi WNW 8.1 mph - N/A   Clear
7:15 PM 42.8 °F 38.0 °F 19.4 °F 39% 30.06 in 10.0 mi WNW 8.1 mph - N/A   Clear
7:35 PM 42.8 °F 37.5 °F 19.4 °F 39% 30.07 in 10.0 mi WNW 9.2 mph - N/A   Clear
7:55 PM 42.8 °F 38.6 °F 19.4 °F 39% 30.07 in 10.0 mi WNW 6.9 mph - N/A   Clear
8:15 PM 42.8 °F 38.0 °F 19.4 °F 39% 30.07 in 10.0 mi WNW 8.1 mph - N/A   Clear
8:35 PM 41.0 °F 36.4 °F 21.2 °F 45% 30.08 in 10.0 mi WNW 6.9 mph - N/A   Clear
8:55 PM 41.0 °F 36.4 °F 19.4 °F 42% 30.08 in 10.0 mi West 6.9 mph - N/A   Clear
9:15 PM 39.2 °F 35.9 °F 19.4 °F 45% 30.08 in 10.0 mi West 4.6 mph - N/A   Clear
9:35 PM 39.2 °F 34.2 °F 21.2 °F 49% 30.09 in 10.0 mi West 6.9 mph - N/A   Clear
9:55 PM 39.2 °F 33.6 °F 21.2 °F 49% 30.08 in 10.0 mi WNW 8.1 mph - N/A   Clear
10:15 PM 39.2 °F 34.2 °F 21.2 °F 49% 30.08 in 10.0 mi WNW 6.9 mph - N/A   Clear
10:35 PM 39.2 °F 35.0 °F 21.2 °F 49% 30.09 in 10.0 mi West 5.8 mph - N/A   Clear
10:55 PM 39.2 °F 34.2 °F 21.2 °F 49% 30.09 in 10.0 mi West 6.9 mph - N/A   Clear
11:15 PM 39.2 °F 33.6 °F 21.2 °F 49% 30.09 in 10.0 mi West 8.1 mph - N/A   Clear
11:35 PM 37.4 °F 32.8 °F 23.0 °F 56% 30.10 in 10.0 mi West 5.8 mph - N/A   Clear
11:55 PM 37.4 °F 32.8 °F 23.0 °F 56% 30.11 in 10.0 mi WSW 5.8 mph - N/A   Clear